Home   Weather   Santos   Past weeks

Flag for Brazil Past Weather in Santos, São Paulo, Brazil — Yesterday and Last 2 Weeks

Now
66 °F

Broken clouds.


Feels Like: 66 °F
Forecast: 64 / 71 °F
Wind: 9 mph from Southeast

Location: Sao Paulo Airport

Current Time: Sep 30, 2016 at 12:10:57 PM

Latest Report: Sep 30, 2016 at 11:00 AM


Visibility: N/A

Pressure: 30.12 "Hg

Humidity: 64%

Dew Point: 54 °F

Location of SantosLocation

Past Weather in Santos — Graph

°F

Santos Temperature Yesterday

Maximum temperature yesterday: 77 °F (at 12:00 PM)
Minimum temperature yesterday: 57 °F (at 4:00 AM)
Average temperature yesterday: 64 °F

High & Low Weather Summary for the Past Weeks

 TemperatureHumidityPressure
High90 °F (Sep 18, 1:00 PM)94% (Sep 25, 9:00 PM)30.27 "Hg (Sep 25, 9:00 PM)
Low50 °F (Sep 27, 3:00 AM)29% (Sep 29, 10:00 AM)30.01 "Hg (Sep 18, 3:00 PM)
Average62 °F76%30.14 "Hg
* Reported Sep 15 11:00 AM — Sep 30 11:00 AM, Santos, Weather by CustomWeather, © 2016

Note: Actual official high and low records may vary slightly from our data, if they occured in-between our weather recording intervals... More about our weather records

Advertising

Santos Weather History for the Previous 24 Hours

Scroll right to see more
 ConditionsComfort  
Time TempWeatherWind HumidityBarometerVisibility
11:00 AM
Fri, Sep 30
66 °FBroken clouds.9 mph64%30.12 "HgN/A
10:00 AM63 °FMore clouds than sun.9 mph73%30.15 "HgN/A
9:00 AM63 °FBroken clouds.9 mph73%30.15 "HgN/A
8:00 AM61 °FPartly sunny.8 mph77%30.12 "HgN/A
7:00 AM59 °FScattered clouds.8 mph82%30.12 "HgN/A
6:00 AM57 °FPartly sunny.8 mph82%30.09 "HgN/A
5:00 AM57 °FPassing clouds.9 mph88%30.07 "HgN/A
3:00 AM57 °FLight rain. Overcast.10 mph88%30.07 "HgN/A
11:00 PM
Thu, Sep 29
59 °FOvercast.9 mph77%30.12 "HgN/A
10:00 PM57 °FPassing clouds.13 mph77%30.12 "HgN/A
9:00 PM59 °FMostly cloudy.13 mph77%30.12 "HgN/A
8:00 PM59 °FMostly cloudy.14 mph77%30.12 "HgN/A
7:00 PM57 °FMostly cloudy.14 mph82%30.09 "HgN/A
6:00 PM59 °FMore clouds than sun.15 mph82%30.07 "Hg6 mi
5:00 PM61 °FBroken clouds.15 mph77%30.07 "HgN/A
4:00 PM63 °FBroken clouds.18 mph77%30.07 "HgN/A
3:00 PM68 °FPassing clouds.18 mph64%30.04 "HgN/A
2:00 PM73 °FPassing clouds.17 mph57%30.04 "HgN/A
1:00 PM75 °FPassing clouds.14 mph50%30.07 "HgN/A
12:00 PM77 °FPassing clouds.10 mph32%30.07 "HgN/A
Weather by CustomWeather, © 2016

See weather overviewHow to use our weather pages